Miscellaneous Local Product
Issued by NWS Hastings, NE

Home | Current Version | Previous Version | Graphics & Text | Print | Product List | Glossary Off
Versions: 1 2 3 4 5 6 7 8 9 10 11 12 13 14 15 16 17 18 19 20 21 22 23 24 25 26 27 28 29 30 31 32 33 34 35 36 37 38 39 40 41 42 43 44 45 46 47 48 49 50

000
AXUS43 KGID 280302
MISGRI

GID CWA HOURLY WEATHER ROUNDUP
NATIONAL WEATHER SERVICE HASTINGS NE
1000 PM CDT MON APR 27 2015

NOTE: "FAIR" INDICATES FEW OR NO CLOUDS BELOW 12,000 FEET WITH NO
SIGNIFICANT WEATHER AND/OR OBSTRUCTIONS TO VISIBILITY.

...SOUTH CENTRAL NEBRASKA...

CITY           SKY/WX    TMP DP  RH WIND       PRES   REMARKS
GRAND ISLAND   CLOUDY    51  33  50 CALM      30.19R
HASTINGS       CLOUDY    52  37  56 E3        30.18R
KEARNEY        MOCLDY    55  37  50 CALM      30.19R
ORD            MOCLDY    49  32  52 CALM      30.19R
YORK           MOCLDY    54  34  47 N3        30.17R
AURORA         CLOUDY    51  35  54 CALM      30.18R
LEXINGTON      PTCLDY    50  34  55 NE8       30.20R
HOLDREGE       MOCLDY    50  33  51 CALM      30.19R
HEBRON         MOCLDY    52  33  48 CALM      30.16R

...NEBRASKA PANHANDLE...

CITY           SKY/WX    TMP DP  RH WIND       PRES   REMARKS
CHADRON        PTCLDY    46  40  79 NE5       30.33R
ALLIANCE       CLEAR     47  41  80 N10       30.30R
SCOTTSBLUFF    CLOUDY    49  42  77 N9        30.31R
SIDNEY         MOCLDY    49  43  80 N12       30.29R

...WESTERN AND NORTH CENTRAL NEBRASKA...

CITY           SKY/WX    TMP DP  RH WIND       PRES   REMARKS
VALENTINE      CLEAR     52  41  66 N17G23    30.27R
AINSWORTH      CLEAR     55  41  60 N16G22    30.25R
ONEILL         MOCLDY    57  32  39 CALM      30.20R
BROKEN BOW     MOCLDY    47  32  56 VRB3      30.21R
IMPERIAL       MOCLDY    51  32  48 CALM      30.23R
NORTH PLATTE   MOCLDY    50  35  56 NE8       30.23R
MCCOOK         PTCLDY    54  35  48 N6        30.20R

...EASTERN NEBRASKA...

CITY           SKY/WX    TMP DP  RH WIND       PRES   REMARKS
NORFOLK        MOCLDY    51  29  42 W5        30.17R
SO SIOUX CITY  PTCLDY    57  29  34 CALM      30.17R
TEKAMAH        PTCLDY    51  32  48 NW7       30.16R
COLUMBUS       PTCLDY    52  30  43 CALM      30.19R
ALBION         MOCLDY    52  33  47 N5        30.19R
OMAHA EPPLEY   MOCLDY    57  35  43 NE6       30.15R
MILLARD        PTCLDY    55  38  54 CALM      30.16R
LINCOLN        MOCLDY    47  36  65 N5        30.17R
NEBRASKA CITY  PTCLDY    57  25  29 CALM      30.15R
BEATRICE       MOCLDY    49  37  63 CALM      30.15R
FALLS CITY     MOCLDY    57  33  40 CALM      30.13R

...NORTHERN KANSAS...

CITY           SKY/WX    TMP DP  RH WIND       PRES   REMARKS
GOODLAND       PTCLDY    46  34  62 NE5       30.24R
HILL CITY      PTCLDY    44  37  76 NE7       30.19R
NORTON         CLEAR     54  34  47 CALM      30.19R
PHILLIPSBURG   CLEAR     52  37  58 CALM      30.18R
SMITH CENTER   CLEAR     50  32  50 NE6       30.18R
BELOIT         CLEAR     43  37  81 N6        30.15R
HAYS           PTCLDY    46  30  53 N6        30.16S
RUSSELL        PTCLDY    50  35  56 NE5       30.15R
CONCORDIA      PTCLDY    51  37  58 N6        30.15R
SALINA         PTCLDY    51  37  58 N7        30.13R
TOPEKA         PTCLDY    52  38  58 CALM      30.12R



USA.gov is the U.S. government's official web portal to all federal, state and local government web resources and services.